Terug naar catalogus

STARLINK-37501

ActiefCommunicatieSSO
NORAD 69296·PAYLOAD·🇺🇸 United States

Gelanceerd May 30, 2026 vanaf Vandenberg Space Force Base

Loading…

Volgende Passages (komende 24 uur)

TLE

VersSource: CelesTrak SupGP

Epoch: Sep 15, 2026, 03:18 UTC

1 69296C 26119A   26258.13798611 -.00031395  00000+0 -97447-3 0  2584
2 69296  97.2825 282.8903 0001230  87.4709  57.8886 15.33458768    13

Volg STARLINK-37501 in realtime met AllMySat

Download on the App Store